Time,TemperatureF,DewpointF,PressureIn,WindDirection,WindDirectionDegrees,WindSpeedMPH,WindSpeedGustMPH,Humidity,HourlyPrecipIn,Conditions,Clouds,dailyrainin,SoftwareType,DateUTC
2013-04-21 00:00:00,45.3,44.0,30.26,West,260,0.0,0.0,95,0.00,,,0.99,Wunderground v.1.15,2013-04-21 07:00:00,
2013-04-21 00:05:00,45.1,43.8,30.26,West,260,0.0,0.0,95,0.00,,,0.00,Wunderground v.1.15,2013-04-21 07:05:00,
2013-04-21 00:10:00,45.1,43.8,30.26,West,260,0.0,0.0,95,0.00,,,0.00,Wunderground v.1.15,2013-04-21 07:10:00,
2013-04-21 00:20:00,45.1,43.8,30.26,West,260,0.0,0.0,95,0.00,,,0.00,Wunderground v.1.15,2013-04-21 07:20:00,
2013-04-21 00:25:00,45.1,43.8,30.26,West,260,0.0,0.0,95,0.00,,,0.00,Wunderground v.1.15,2013-04-21 07:25:00,
2013-04-21 00:30:00,45.1,43.8,30.26,West,260,0.0,0.0,95,0.00,,,0.00,Wunderground v.1.15,2013-04-21 07:30:00,
2013-04-21 00:35:00,45.1,43.8,30.26,West,260,0.0,0.0,95,0.00,,,0.00,Wunderground v.1.15,2013-04-21 07:35:00,
2013-04-21 00:45:00,45.0,43.7,30.27,West,260,0.0,0.0,95,0.00,,,0.01,Wunderground v.1.15,2013-04-21 07:45:00,
2013-04-21 00:50:00,45.0,43.7,30.27,West,260,0.0,0.0,95,0.00,,,0.01,Wunderground v.1.15,2013-04-21 07:50:00,
2013-04-21 00:55:00,45.0,43.7,30.27,West,260,0.0,0.0,95,0.10,,,0.02,Wunderground v.1.15,2013-04-21 07:55:00,
2013-04-21 01:00:00,45.0,43.7,30.27,West,260,0.0,0.0,95,0.06,,,0.02,Wunderground v.1.15,2013-04-21 08:00:00,
2013-04-21 01:05:00,44.8,43.5,30.27,West,260,0.0,0.0,95,0.06,,,0.03,Wunderground v.1.15,2013-04-21 08:05:00,
2013-04-21 01:10:00,44.8,43.5,30.27,West,260,0.0,0.0,95,0.12,,,0.04,Wunderground v.1.15,2013-04-21 08:10:00,
2013-04-21 01:15:00,44.8,43.5,30.26,West,260,0.0,0.0,95,0.06,,,0.04,Wunderground v.1.15,2013-04-21 08:15:00,
2013-04-21 01:20:00,44.8,43.5,30.26,West,260,0.0,0.0,95,0.04,,,0.04,Wunderground v.1.15,2013-04-21 08:20:00,
2013-04-21 01:30:00,44.8,43.5,30.26,West,260,0.0,0.0,95,0.00,,,0.04,Wunderground v.1.15,2013-04-21 08:30:00,
2013-04-21 01:35:00,44.8,43.5,30.26,West,260,0.0,0.0,95,0.00,,,0.05,Wunderground v.1.15,2013-04-21 08:35:00,
2013-04-21 01:40:00,44.8,43.5,30.26,West,260,0.0,0.0,95,0.00,,,0.05,Wunderground v.1.15,2013-04-21 08:40:00,
2013-04-21 01:45:00,44.8,43.5,30.26,West,260,0.0,0.0,95,0.00,,,0.05,Wunderground v.1.15,2013-04-21 08:45:00,
2013-04-21 01:50:00,44.8,43.5,30.26,West,260,0.0,0.0,95,0.00,,,0.05,Wunderground v.1.15,2013-04-21 08:50:00,
2013-04-21 01:55:00,44.8,43.5,30.26,West,260,0.0,0.0,95,0.00,,,0.05,Wunderground v.1.15,2013-04-21 08:55:00,
2013-04-21 02:00:00,44.8,43.5,30.25,West,260,0.0,0.0,95,0.00,,,0.06,Wunderground v.1.15,2013-04-21 09:00:00,
2013-04-21 02:05:00,44.8,43.5,30.25,West,260,0.0,0.0,95,0.00,,,0.06,Wunderground v.1.15,2013-04-21 09:05:00,
2013-04-21 02:10:00,44.8,43.5,30.25,West,260,0.0,0.0,95,0.00,,,0.06,Wunderground v.1.15,2013-04-21 09:10:00,
2013-04-21 02:15:00,44.8,43.5,30.25,West,260,0.0,0.0,95,0.00,,,0.06,Wunderground v.1.15,2013-04-21 09:15:00,
2013-04-21 02:20:00,44.7,43.4,30.25,West,260,0.0,0.0,95,0.00,,,0.06,Wunderground v.1.15,2013-04-21 09:20:00,
2013-04-21 02:30:00,44.7,43.4,30.25,West,260,0.0,0.0,95,0.00,,,0.06,Wunderground v.1.15,2013-04-21 09:30:00,
2013-04-21 02:35:00,44.7,43.4,30.25,West,260,0.0,0.0,95,0.00,,,0.06,Wunderground v.1.15,2013-04-21 09:35:00,
2013-04-21 02:40:00,44.6,43.3,30.25,West,260,0.0,0.0,95,0.00,,,0.06,Wunderground v.1.15,2013-04-21 09:40:00,
2013-04-21 02:45:00,44.6,43.3,30.25,West,260,0.0,0.0,95,0.00,,,0.06,Wunderground v.1.15,2013-04-21 09:45:00,
2013-04-21 02:50:00,44.6,43.3,30.25,West,260,0.0,0.0,95,0.00,,,0.06,Wunderground v.1.15,2013-04-21 09:50:00,
2013-04-21 03:00:00,44.6,43.3,30.25,West,260,0.0,0.0,95,0.06,,,0.07,Wunderground v.1.15,2013-04-21 10:00:00,
2013-04-21 03:05:00,44.6,43.3,30.25,West,260,0.0,0.0,95,0.05,,,0.08,Wunderground v.1.15,2013-04-21 10:05:00,
2013-04-21 03:15:00,44.6,43.3,30.25,West,260,0.0,0.0,95,0.04,,,0.08,Wunderground v.1.15,2013-04-21 10:15:00,
2013-04-21 03:20:00,44.6,43.3,30.25,West,260,0.0,0.0,95,0.04,,,0.09,Wunderground v.1.15,2013-04-21 10:20:00,
2013-04-21 03:25:00,44.4,43.1,30.25,West,260,0.0,0.0,95,0.04,,,0.09,Wunderground v.1.15,2013-04-21 10:25:00,
2013-04-21 03:30:00,44.4,43.1,30.25,West,260,0.0,0.0,95,0.04,,,0.09,Wunderground v.1.15,2013-04-21 10:30:00,
2013-04-21 03:35:00,44.3,43.0,30.25,West,260,0.0,0.0,95,0.00,,,0.09,Wunderground v.1.15,2013-04-21 10:35:00,
2013-04-21 03:40:00,44.3,43.0,30.25,West,260,0.0,0.0,95,0.00,,,0.09,Wunderground v.1.15,2013-04-21 10:40:00,
2013-04-21 03:45:00,44.3,43.0,30.24,West,260,0.0,0.0,95,0.00,,,0.09,Wunderground v.1.15,2013-04-21 10:45:00,
2013-04-21 03:50:00,44.3,43.0,30.24,West,260,0.0,0.0,95,0.00,,,0.09,Wunderground v.1.15,2013-04-21 10:50:00,
2013-04-21 03:55:00,44.3,43.0,30.24,West,260,0.0,0.0,95,0.00,,,0.09,Wunderground v.1.15,2013-04-21 10:55:00,
2013-04-21 04:00:00,44.3,43.0,30.25,West,260,0.0,0.0,95,0.00,,,0.10,Wunderground v.1.15,2013-04-21 11:00:00,
2013-04-21 04:05:00,44.3,43.0,30.25,West,260,0.0,0.0,95,0.00,,,0.10,Wunderground v.1.15,2013-04-21 11:05:00,
2013-04-21 04:10:00,44.1,42.8,30.25,West,260,0.0,0.0,95,0.00,,,0.10,Wunderground v.1.15,2013-04-21 11:10:00,
2013-04-21 04:15:00,44.1,42.8,30.25,West,260,0.0,0.0,95,0.00,,,0.10,Wunderground v.1.15,2013-04-21 11:15:00,
2013-04-21 04:20:00,44.1,42.8,30.25,West,260,0.0,0.0,95,0.00,,,0.10,Wunderground v.1.15,2013-04-21 11:20:00,
2013-04-21 04:25:00,44.1,42.8,30.25,West,260,0.0,0.0,95,0.00,,,0.10,Wunderground v.1.15,2013-04-21 11:25:00,
2013-04-21 04:30:00,44.1,42.8,30.25,West,260,0.0,0.0,95,0.00,,,0.11,Wunderground v.1.15,2013-04-21 11:30:00,
2013-04-21 04:35:00,44.1,42.8,30.25,West,260,0.0,0.0,95,0.00,,,0.11,Wunderground v.1.15,2013-04-21 11:35:00,
2013-04-21 04:40:00,44.1,42.8,30.25,West,260,0.0,0.0,95,0.00,,,0.11,Wunderground v.1.15,2013-04-21 11:40:00,
2013-04-21 04:45:00,44.0,42.7,30.25,West,260,0.0,0.0,95,0.00,,,0.11,Wunderground v.1.15,2013-04-21 11:45:00,
2013-04-21 04:50:00,44.0,42.7,30.25,West,260,0.0,0.0,95,0.00,,,0.11,Wunderground v.1.15,2013-04-21 11:50:00,
2013-04-21 04:55:00,44.0,42.7,30.25,West,260,0.0,0.0,95,0.00,,,0.11,Wunderground v.1.15,2013-04-21 11:55:00,
2013-04-21 05:00:00,44.0,42.7,30.25,West,260,0.0,0.0,95,0.00,,,0.12,Wunderground v.1.15,2013-04-21 12:00:00,
2013-04-21 05:05:00,43.8,42.5,30.25,West,260,0.0,0.0,95,0.00,,,0.12,Wunderground v.1.15,2013-04-21 12:05:00,
2013-04-21 05:10:00,43.7,42.4,30.25,West,260,0.0,0.0,95,0.00,,,0.12,Wunderground v.1.15,2013-04-21 12:10:00,
2013-04-21 05:15:00,43.7,42.4,30.25,West,260,0.0,0.0,95,0.00,,,0.12,Wunderground v.1.15,2013-04-21 12:15:00,
2013-04-21 05:20:00,43.7,42.4,30.25,West,260,0.0,0.0,95,0.00,,,0.13,Wunderground v.1.15,2013-04-21 12:20:00,
2013-04-21 05:25:00,43.7,42.4,30.25,West,260,0.0,0.0,95,0.00,,,0.13,Wunderground v.1.15,2013-04-21 12:25:00,
2013-04-21 05:30:00,43.7,42.4,30.24,West,260,0.0,0.0,95,0.00,,,0.13,Wunderground v.1.15,2013-04-21 12:30:00,
2013-04-21 05:35:00,43.7,42.4,30.24,West,260,0.0,0.0,95,0.00,,,0.13,Wunderground v.1.15,2013-04-21 12:35:00,
2013-04-21 05:40:00,43.6,42.3,30.24,West,260,0.0,0.0,95,0.00,,,0.14,Wunderground v.1.15,2013-04-21 12:40:00,
2013-04-21 05:45:00,43.6,42.3,30.24,West,260,0.0,0.0,95,0.13,,,0.15,Wunderground v.1.15,2013-04-21 12:45:00,
2013-04-21 05:50:00,43.4,42.1,30.24,West,260,0.0,0.0,95,0.08,,,0.15,Wunderground v.1.15,2013-04-21 12:50:00,
2013-04-21 05:55:00,43.4,42.1,30.24,West,260,0.0,0.0,95,0.05,,,0.15,Wunderground v.1.15,2013-04-21 12:55:00,
2013-04-21 06:00:00,43.4,42.1,30.24,West,260,0.0,0.0,95,0.04,,,0.16,Wunderground v.1.15,2013-04-21 13:00:00,
2013-04-21 06:05:00,43.4,42.1,30.24,West,260,0.0,0.0,95,0.04,,,0.16,Wunderground v.1.15,2013-04-21 13:05:00,
2013-04-21 06:10:00,43.4,42.1,30.24,West,260,0.0,0.0,95,0.04,,,0.16,Wunderground v.1.15,2013-04-21 13:10:00,
2013-04-21 06:15:00,43.4,42.1,30.25,West,260,0.0,0.0,95,0.00,,,0.16,Wunderground v.1.15,2013-04-21 13:15:00,
2013-04-21 06:25:00,43.4,42.1,30.25,West,260,0.0,0.0,95,0.00,,,0.16,Wunderground v.1.15,2013-04-21 13:25:00,
2013-04-21 06:30:00,43.4,42.1,30.25,West,260,0.0,0.0,95,0.00,,,0.17,Wunderground v.1.15,2013-04-21 13:30:00,
2013-04-21 06:40:00,43.4,42.1,30.25,SSE,153,0.0,0.0,95,0.27,,,0.20,Wunderground v.1.15,2013-04-21 13:40:00,
2013-04-21 06:45:00,43.3,42.0,30.25,SSE,153,0.0,0.0,95,0.29,,,0.23,Wunderground v.1.15,2013-04-21 13:45:00,
2013-04-21 06:50:00,43.3,42.0,30.25,SSE,153,0.0,0.0,95,0.09,,,0.23,Wunderground v.1.15,2013-04-21 13:50:00,
2013-04-21 06:55:00,43.3,42.0,30.25,SSE,153,0.0,0.0,95,0.07,,,0.24,Wunderground v.1.15,2013-04-21 13:55:00,
2013-04-21 07:00:00,43.3,42.0,30.24,SSE,153,0.0,0.0,95,0.07,,,0.24,Wunderground v.1.15,2013-04-21 14:00:00,
2013-04-21 07:05:00,43.3,42.0,30.24,SSE,153,0.0,0.0,95,0.07,,,0.25,Wunderground v.1.15,2013-04-21 14:05:00,
2013-04-21 07:10:00,43.3,42.0,30.24,SSE,153,0.0,0.0,95,0.06,,,0.25,Wunderground v.1.15,2013-04-21 14:10:00,
2013-04-21 07:15:00,43.3,42.0,30.24,SSE,153,0.0,0.0,95,0.04,,,0.25,Wunderground v.1.15,2013-04-21 14:15:00,
2013-04-21 07:20:00,43.1,41.8,30.24,SSE,153,0.0,0.0,95,0.00,,,0.25,Wunderground v.1.15,2013-04-21 14:20:00,
2013-04-21 07:25:00,43.1,41.8,30.24,SSE,153,0.0,0.0,95,0.00,,,0.25,Wunderground v.1.15,2013-04-21 14:25:00,
2013-04-21 07:35:00,43.1,41.8,30.24,SSE,153,0.0,0.0,95,0.00,,,0.26,Wunderground v.1.15,2013-04-21 14:35:00,
2013-04-21 07:40:00,43.1,41.8,30.24,SSE,153,0.0,0.0,95,0.00,,,0.26,Wunderground v.1.15,2013-04-21 14:40:00,
2013-04-21 07:45:00,43.3,42.0,30.24,SSE,153,0.0,0.0,95,0.00,,,0.26,Wunderground v.1.15,2013-04-21 14:45:00,
2013-04-21 07:50:00,43.3,42.0,30.24,SSE,153,0.0,0.0,95,0.00,,,0.26,Wunderground v.1.15,2013-04-21 14:50:00,
2013-04-21 07:55:00,43.3,42.0,30.24,SSE,153,0.0,0.0,95,0.00,,,0.26,Wunderground v.1.15,2013-04-21 14:55:00,
2013-04-21 08:00:00,43.3,42.0,30.24,SSE,153,0.0,0.0,95,0.00,,,0.27,Wunderground v.1.15,2013-04-21 15:00:00,
2013-04-21 08:05:00,43.4,42.1,30.24,SSE,153,0.0,0.0,95,0.00,,,0.27,Wunderground v.1.15,2013-04-21 15:05:00,
2013-04-21 08:10:00,43.4,42.1,30.24,SSE,153,0.0,0.0,95,0.00,,,0.27,Wunderground v.1.15,2013-04-21 15:10:00,
2013-04-21 08:15:00,43.4,42.1,30.24,SSE,153,0.0,0.0,95,0.00,,,0.27,Wunderground v.1.15,2013-04-21 15:15:00,
2013-04-21 08:25:00,43.4,42.1,30.24,SSE,153,0.0,0.0,95,0.00,,,0.28,Wunderground v.1.15,2013-04-21 15:25:00,
2013-04-21 08:30:00,43.4,42.1,30.24,SSE,153,0.0,0.0,95,0.09,,,0.29,Wunderground v.1.15,2013-04-21 15:30:00,
2013-04-21 08:35:00,43.6,42.3,30.24,SSE,153,0.0,0.0,95,0.08,,,0.30,Wunderground v.1.15,2013-04-21 15:35:00,
2013-04-21 08:40:00,43.6,42.3,30.24,SSE,153,0.0,0.0,95,0.08,,,0.30,Wunderground v.1.15,2013-04-21 15:40:00,
2013-04-21 08:45:00,43.6,42.3,30.24,SSE,153,0.0,0.0,95,0.07,,,0.31,Wunderground v.1.15,2013-04-21 15:45:00,
2013-04-21 08:50:00,43.4,42.1,30.24,SSE,153,0.0,0.0,95,0.07,,,0.31,Wunderground v.1.15,2013-04-21 15:50:00,
2013-04-21 08:55:00,43.4,42.1,30.24,SSE,153,0.0,0.0,95,0.05,,,0.31,Wunderground v.1.15,2013-04-21 15:55:00,
2013-04-21 09:00:00,43.4,42.1,30.24,SSE,153,0.0,0.0,95,0.00,,,0.31,Wunderground v.1.15,2013-04-21 16:00:00,
2013-04-21 09:05:00,43.6,42.3,30.24,SSE,153,0.0,0.0,95,0.00,,,0.31,Wunderground v.1.15,2013-04-21 16:05:00,
2013-04-21 09:10:00,43.7,42.4,30.24,SSE,153,0.0,0.0,95,0.00,,,0.31,Wunderground v.1.15,2013-04-21 16:10:00,
2013-04-21 09:15:00,43.8,42.5,30.24,SSE,153,0.0,0.0,95,0.00,,,0.32,Wunderground v.1.15,2013-04-21 16:15:00,
2013-04-21 09:20:00,43.8,42.5,30.24,SSE,153,0.0,0.0,95,0.00,,,0.32,Wunderground v.1.15,2013-04-21 16:20:00,
2013-04-21 09:25:00,44.0,42.7,30.24,SSE,153,0.0,0.0,95,0.00,,,0.32,Wunderground v.1.15,2013-04-21 16:25:00,
2013-04-21 09:30:00,44.0,42.7,30.24,SSE,153,0.0,0.0,95,0.00,,,0.32,Wunderground v.1.15,2013-04-21 16:30:00,
2013-04-21 09:35:00,44.0,42.7,30.24,SSE,153,0.0,0.0,95,0.00,,,0.32,Wunderground v.1.15,2013-04-21 16:35:00,
2013-04-21 09:40:00,43.8,42.5,30.24,SSE,153,0.0,0.0,95,0.00,,,0.33,Wunderground v.1.15,2013-04-21 16:40:00,
2013-04-21 09:45:00,43.6,42.3,30.24,SSE,153,0.0,0.0,95,0.00,,,0.33,Wunderground v.1.15,2013-04-21 16:45:00,
2013-04-21 09:50:00,43.4,42.1,30.24,SSE,153,0.0,0.0,95,0.06,,,0.34,Wunderground v.1.15,2013-04-21 16:50:00,
2013-04-21 09:55:00,43.3,42.0,30.24,SSE,153,0.0,0.0,95,0.14,,,0.35,Wunderground v.1.15,2013-04-21 16:55:00,
2013-04-21 10:00:00,43.3,42.0,30.24,SSE,153,0.0,0.0,95,0.30,,,0.37,Wunderground v.1.15,2013-04-21 17:00:00,
2013-04-21 10:05:00,43.4,42.1,30.24,SSE,153,0.0,0.0,95,0.35,,,0.39,Wunderground v.1.15,2013-04-21 17:05:00,
2013-04-21 10:10:00,43.4,42.1,30.24,SSE,153,0.0,0.0,95,0.27,,,0.41,Wunderground v.1.15,2013-04-21 17:10:00,
2013-04-21 10:15:00,43.4,42.1,30.24,SSE,153,0.0,0.0,95,0.10,,,0.41,Wunderground v.1.15,2013-04-21 17:15:00,
2013-04-21 10:25:00,43.6,42.3,30.24,SSE,155,0.0,0.0,95,0.14,,,0.42,Wunderground v.1.15,2013-04-21 17:25:00,
2013-04-21 10:30:00,43.7,42.4,30.24,SSE,155,0.0,0.0,95,0.11,,,0.43,Wunderground v.1.15,2013-04-21 17:30:00,
2013-04-21 10:35:00,43.7,42.4,30.24,SSE,155,0.0,0.0,95,0.06,,,0.43,Wunderground v.1.15,2013-04-21 17:35:00,
2013-04-21 10:40:00,43.8,42.5,30.24,SSE,155,0.0,0.0,95,0.16,,,0.45,Wunderground v.1.15,2013-04-21 17:40:00,
2013-04-21 10:45:00,44.0,42.7,30.24,SSE,155,0.0,0.0,95,0.10,,,0.45,Wunderground v.1.15,2013-04-21 17:45:00,
2013-04-21 10:50:00,44.1,42.8,30.24,SSE,155,0.0,0.0,95,0.06,,,0.45,Wunderground v.1.15,2013-04-21 17:50:00,
2013-04-21 10:55:00,44.3,43.0,30.24,SSE,155,0.0,0.0,95,0.04,,,0.45,Wunderground v.1.15,2013-04-21 17:55:00,
2013-04-21 11:00:00,44.3,43.0,30.25,SSE,155,0.0,0.0,95,0.00,,,0.46,Wunderground v.1.15,2013-04-21 18:00:00,
2013-04-21 11:05:00,44.3,43.0,30.25,SSE,155,0.0,0.0,95,0.00,,,0.46,Wunderground v.1.15,2013-04-21 18:05:00,
2013-04-21 11:15:00,43.8,42.5,30.25,SSE,155,0.0,0.0,95,0.04,,,0.47,Wunderground v.1.15,2013-04-21 18:15:00,
2013-04-21 11:20:00,43.7,42.4,30.25,SSE,155,0.0,0.0,95,0.04,,,0.47,Wunderground v.1.15,2013-04-21 18:20:00,
2013-04-21 11:25:00,43.8,42.5,30.25,SSE,155,0.0,0.0,95,0.04,,,0.47,Wunderground v.1.15,2013-04-21 18:25:00,
2013-04-21 11:30:00,44.1,42.8,30.25,SSE,155,0.0,0.0,95,0.00,,,0.47,Wunderground v.1.15,2013-04-21 18:30:00,
2013-04-21 11:35:00,44.0,42.7,30.25,SSE,155,0.0,0.0,95,0.00,,,0.47,Wunderground v.1.15,2013-04-21 18:35:00,
2013-04-21 11:45:00,43.8,42.5,30.25,SSE,161,0.0,1.0,95,0.00,,,0.48,Wunderground v.1.15,2013-04-21 18:45:00,
2013-04-21 11:50:00,43.6,42.3,30.25,WSW,238,0.0,0.0,95,0.08,,,0.49,Wunderground v.1.15,2013-04-21 18:50:00,
2013-04-21 11:55:00,43.6,42.3,30.25,WSW,240,0.0,0.0,95,0.08,,,0.49,Wunderground v.1.15,2013-04-21 18:55:00,
2013-04-21 12:00:00,43.6,42.3,30.25,WSW,240,0.0,0.0,95,0.06,,,0.50,Wunderground v.1.15,2013-04-21 19:00:00,
2013-04-21 12:05:00,43.8,42.5,30.25,WSW,240,0.0,0.0,95,0.06,,,0.50,Wunderground v.1.15,2013-04-21 19:05:00,
2013-04-21 12:15:00,44.1,42.8,30.25,WSW,244,0.0,0.0,95,0.00,,,0.50,Wunderground v.1.15,2013-04-21 19:15:00,
2013-04-21 12:25:00,44.3,43.0,30.25,WSW,246,0.0,0.0,95,0.00,,,0.50,Wunderground v.1.15,2013-04-21 19:25:00,
2013-04-21 12:30:00,44.4,43.1,30.25,WSW,246,0.0,0.0,95,0.00,,,0.50,Wunderground v.1.15,2013-04-21 19:30:00,
2013-04-21 12:35:00,44.4,43.1,30.25,WSW,246,0.0,0.0,95,0.00,,,0.50,Wunderground v.1.15,2013-04-21 19:35:00,
2013-04-21 12:40:00,44.3,43.0,30.25,WSW,246,0.0,0.0,95,0.00,,,0.50,Wunderground v.1.15,2013-04-21 19:40:00,
2013-04-21 12:50:00,44.4,43.1,30.25,NNE,30,0.0,2.0,95,0.00,,,0.50,Wunderground v.1.15,2013-04-21 19:50:00,
2013-04-21 13:00:00,44.7,43.4,30.25,NNE,30,0.0,0.0,95,0.00,,,0.51,Wunderground v.1.15,2013-04-21 20:00:00,
2013-04-21 13:05:00,44.8,43.5,30.25,NNE,30,0.0,0.0,95,0.00,,,0.51,Wunderground v.1.15,2013-04-21 20:05:00,
2013-04-21 13:10:00,45.1,43.8,30.25,NNE,30,0.0,0.0,95,0.00,,,0.51,Wunderground v.1.15,2013-04-21 20:10:00,
2013-04-21 13:15:00,45.1,43.8,30.25,NNE,30,0.0,0.0,95,0.00,,,0.51,Wunderground v.1.15,2013-04-21 20:15:00,
2013-04-21 13:20:00,45.1,43.8,30.25,NNE,30,0.0,0.0,95,0.00,,,0.51,Wunderground v.1.15,2013-04-21 20:20:00,
2013-04-21 13:25:00,45.1,43.8,30.25,NNE,30,0.0,0.0,95,0.00,,,0.51,Wunderground v.1.15,2013-04-21 20:25:00,
2013-04-21 13:30:00,45.3,44.0,30.24,NNE,30,0.0,1.0,95,0.00,,,0.51,Wunderground v.1.15,2013-04-21 20:30:00,
2013-04-21 13:35:00,45.6,44.3,30.24,NE,53,0.0,1.0,95,0.00,,,0.51,Wunderground v.1.15,2013-04-21 20:35:00,
2013-04-21 13:40:00,45.6,44.3,30.24,ENE,75,1.0,1.0,95,0.00,,,0.51,Wunderground v.1.15,2013-04-21 20:40:00,
2013-04-21 13:45:00,45.7,44.4,30.24,ENE,75,1.0,1.0,95,0.00,,,0.51,Wunderground v.1.15,2013-04-21 20:45:00,
2013-04-21 13:50:00,45.7,44.4,30.24,ENE,75,0.0,0.0,95,0.00,,,0.51,Wunderground v.1.15,2013-04-21 20:50:00,
2013-04-21 13:55:00,45.9,44.5,30.24,ENE,75,0.0,0.0,95,0.00,,,0.51,Wunderground v.1.15,2013-04-21 20:55:00,
2013-04-21 14:00:00,45.9,44.5,30.24,NE,41,0.0,0.0,95,0.00,,,0.51,Wunderground v.1.15,2013-04-21 21:00:00,
2013-04-21 14:05:00,45.9,44.5,30.24,NE,40,0.0,0.0,95,0.00,,,0.51,Wunderground v.1.15,2013-04-21 21:05:00,
2013-04-21 14:10:00,45.6,44.0,30.24,North,5,0.0,0.0,94,0.00,,,0.51,Wunderground v.1.15,2013-04-21 21:10:00,
2013-04-21 14:15:00,45.4,43.8,30.26,West,263,0.0,1.0,94,0.44,,,0.53,Wunderground v.1.15,2013-04-21 21:15:00,
2013-04-21 14:20:00,44.8,42.9,30.26,WNW,294,1.0,1.0,93,0.47,,,0.59,Wunderground v.1.15,2013-04-21 21:20:00,
2013-04-21 14:25:00,44.3,42.4,30.26,WNW,294,0.0,1.0,93,0.25,,,0.61,Wunderground v.1.15,2013-04-21 21:25:00,
2013-04-21 14:30:00,44.1,42.2,30.27,North,355,0.0,0.0,93,0.08,,,0.61,Wunderground v.1.15,2013-04-21 21:30:00,
2013-04-21 14:35:00,44.7,43.1,30.27,NE,34,0.0,0.0,94,0.05,,,0.61,Wunderground v.1.15,2013-04-21 21:35:00,
2013-04-21 14:40:00,45.1,43.8,30.27,NE,40,0.0,0.0,95,0.04,,,0.62,Wunderground v.1.15,2013-04-21 21:40:00,
2013-04-21 14:45:00,45.6,44.3,30.26,NNE,32,1.0,1.0,95,0.04,,,0.62,Wunderground v.1.15,2013-04-21 21:45:00,
2013-04-21 14:50:00,46.0,44.6,30.26,NE,40,1.0,1.0,95,0.04,,,0.62,Wunderground v.1.15,2013-04-21 21:50:00,
2013-04-21 14:55:00,46.5,45.1,30.26,NE,40,0.0,1.0,95,0.04,,,0.62,Wunderground v.1.15,2013-04-21 21:55:00,
2013-04-21 15:00:00,46.6,45.2,30.26,ENE,62,0.0,0.0,95,0.00,,,0.62,Wunderground v.1.15,2013-04-21 22:00:00,
2013-04-21 15:05:00,46.5,45.1,30.26,ENE,62,0.0,0.0,95,0.00,,,0.62,Wunderground v.1.15,2013-04-21 22:05:00,
2013-04-21 15:10:00,46.2,44.6,30.26,North,355,0.0,0.0,94,0.00,,,0.62,Wunderground v.1.15,2013-04-21 22:10:00,
2013-04-21 15:15:00,46.2,44.6,30.26,WNW,290,0.0,0.0,94,0.00,,,0.62,Wunderground v.1.15,2013-04-21 22:15:00,
2013-04-21 15:20:00,45.7,43.5,30.26,WNW,290,0.0,0.0,92,0.00,,,0.62,Wunderground v.1.15,2013-04-21 22:20:00,
2013-04-21 15:25:00,45.9,43.7,30.26,WNW,293,0.0,0.0,92,0.00,,,0.62,Wunderground v.1.15,2013-04-21 22:25:00,
2013-04-21 15:30:00,46.2,44.0,30.26,West,278,0.0,0.0,92,0.00,,,0.62,Wunderground v.1.15,2013-04-21 22:30:00,
2013-04-21 15:40:00,46.6,44.1,30.26,West,275,0.0,0.0,91,0.00,,,0.62,Wunderground v.1.15,2013-04-21 22:40:00,
2013-04-21 15:45:00,46.6,43.8,30.26,West,275,0.0,0.0,90,0.00,,,0.62,Wunderground v.1.15,2013-04-21 22:45:00,
2013-04-21 15:50:00,46.5,44.0,30.26,West,275,0.0,0.0,91,0.00,,,0.62,Wunderground v.1.15,2013-04-21 22:50:00,
2013-04-21 16:00:00,46.6,44.1,30.26,West,275,0.0,0.0,91,0.00,,,0.62,Wunderground v.1.15,2013-04-21 23:00:00,
2013-04-21 16:05:00,46.6,44.4,30.26,West,275,0.0,0.0,92,0.00,,,0.62,Wunderground v.1.15,2013-04-21 23:05:00,
2013-04-21 16:10:00,46.6,44.4,30.26,West,275,0.0,0.0,92,0.00,,,0.62,Wunderground v.1.15,2013-04-21 23:10:00,
2013-04-21 16:15:00,46.6,44.4,30.25,West,275,0.0,0.0,92,0.00,,,0.62,Wunderground v.1.15,2013-04-21 23:15:00,
2013-04-21 16:20:00,46.9,44.7,30.25,West,275,0.0,0.0,92,0.00,,,0.62,Wunderground v.1.15,2013-04-21 23:20:00,
2013-04-21 16:25:00,47.0,44.8,30.25,West,275,0.0,0.0,92,0.00,,,0.62,Wunderground v.1.15,2013-04-21 23:25:00,
2013-04-21 16:30:00,47.3,45.1,30.25,West,275,0.0,0.0,92,0.00,,,0.62,Wunderground v.1.15,2013-04-21 23:30:00,
2013-04-21 16:35:00,47.2,44.4,30.25,West,275,0.0,1.0,90,0.00,,,0.62,Wunderground v.1.15,2013-04-21 23:35:00,
2013-04-21 16:40:00,47.0,44.2,30.25,West,275,0.0,0.0,90,0.00,,,0.62,Wunderground v.1.15,2013-04-21 23:40:00,
2013-04-21 16:45:00,46.9,43.5,30.25,WSW,253,0.0,0.0,88,0.00,,,0.62,Wunderground v.1.15,2013-04-21 23:45:00,
2013-04-21 17:00:00,47.0,43.9,30.26,SW,234,0.0,0.0,89,0.00,,,0.62,Wunderground v.1.15,2013-04-22 00:00:00,
2013-04-21 17:05:00,47.0,43.9,30.26,SW,234,0.0,0.0,89,0.00,,,0.62,Wunderground v.1.15,2013-04-22 00:05:00,
2013-04-21 17:10:00,47.2,44.1,30.26,West,259,0.0,0.0,89,0.00,,,0.62,Wunderground v.1.15,2013-04-22 00:10:00,
2013-04-21 17:15:00,47.5,44.1,30.25,SW,225,0.0,4.0,88,0.00,,,0.62,Wunderground v.1.15,2013-04-22 00:15:00,
2013-04-21 17:20:00,47.8,43.8,30.25,SW,225,0.0,0.0,86,0.00,,,0.62,Wunderground v.1.15,2013-04-22 00:20:00,
2013-04-21 17:25:00,47.9,43.0,30.25,West,270,1.0,2.0,83,0.00,,,0.62,Wunderground v.1.15,2013-04-22 00:25:00,
2013-04-21 17:30:00,48.1,43.2,30.26,West,273,1.0,1.0,83,0.00,,,0.62,Wunderground v.1.15,2013-04-22 00:30:00,
2013-04-21 17:35:00,48.1,42.9,30.26,West,263,1.0,1.0,82,0.00,,,0.62,Wunderground v.1.15,2013-04-22 00:35:00,
2013-04-21 17:40:00,48.1,42.9,30.26,West,267,1.0,1.0,82,0.00,,,0.62,Wunderground v.1.15,2013-04-22 00:40:00,
2013-04-21 17:45:00,48.1,43.2,30.26,West,268,1.0,4.0,83,0.00,,,0.62,Wunderground v.1.15,2013-04-22 00:45:00,
2013-04-21 17:55:00,47.9,42.3,30.26,WNW,284,1.0,1.0,81,0.00,,,0.62,Wunderground v.1.15,2013-04-22 00:55:00,
2013-04-21 18:00:00,47.9,42.7,30.26,WSW,254,1.0,1.0,82,0.00,,,0.62,Wunderground v.1.15,2013-04-22 01:00:00,
2013-04-21 18:05:00,47.8,41.9,30.26,West,265,0.0,1.0,80,0.00,,,0.62,Wunderground v.1.15,2013-04-22 01:05:00,
2013-04-21 18:15:00,47.5,42.6,30.27,WSW,245,0.0,0.0,83,0.00,,,0.62,Wunderground v.1.15,2013-04-22 01:15:00,
2013-04-21 18:20:00,47.3,42.4,30.27,WSW,245,0.0,0.0,83,0.00,,,0.62,Wunderground v.1.15,2013-04-22 01:20:00,
2013-04-21 18:25:00,47.0,41.5,30.27,West,275,0.0,0.0,81,0.00,,,0.62,Wunderground v.1.15,2013-04-22 01:25:00,
2013-04-21 18:30:00,46.9,41.7,30.27,WSW,244,0.0,1.0,82,0.00,,,0.62,Wunderground v.1.15,2013-04-22 01:30:00,
2013-04-21 18:35:00,46.6,41.1,30.27,West,267,1.0,1.0,81,0.00,,,0.62,Wunderground v.1.15,2013-04-22 01:35:00,
2013-04-21 18:40:00,46.5,41.3,30.27,West,267,0.0,0.0,82,0.00,,,0.62,Wunderground v.1.15,2013-04-22 01:40:00,
2013-04-21 18:45:00,46.3,41.7,30.27,West,267,0.0,0.0,84,0.00,,,0.62,Wunderground v.1.15,2013-04-22 01:45:00,
2013-04-21 18:50:00,46.2,41.0,30.27,SW,236,0.0,0.0,82,0.00,,,0.62,Wunderground v.1.15,2013-04-22 01:50:00,
2013-04-21 19:00:00,46.0,42.0,30.27,SW,236,0.0,0.0,86,0.00,,,0.62,Wunderground v.1.15,2013-04-22 02:00:00,
2013-04-21 19:05:00,45.7,41.8,30.27,SW,236,0.0,0.0,86,0.00,,,0.62,Wunderground v.1.15,2013-04-22 02:05:00,
2013-04-21 19:10:00,45.6,41.7,30.27,SW,236,0.0,0.0,86,0.00,,,0.62,Wunderground v.1.15,2013-04-22 02:10:00,
2013-04-21 19:15:00,45.4,42.1,30.28,SW,236,0.0,0.0,88,0.00,,,0.62,Wunderground v.1.15,2013-04-22 02:15:00,
2013-04-21 19:20:00,45.3,42.2,30.28,SW,236,0.0,0.0,89,0.00,,,0.62,Wunderground v.1.15,2013-04-22 02:20:00,
2013-04-21 19:25:00,45.3,42.2,30.28,SW,236,0.0,0.0,89,0.00,,,0.62,Wunderground v.1.15,2013-04-22 02:25:00,
2013-04-21 19:30:00,45.3,42.5,30.28,SW,236,0.0,0.0,90,0.00,,,0.62,Wunderground v.1.15,2013-04-22 02:30:00,
2013-04-21 19:35:00,45.3,42.5,30.28,SW,236,0.0,0.0,90,0.00,,,0.62,Wunderground v.1.15,2013-04-22 02:35:00,
2013-04-21 19:55:00,44.8,42.0,30.29,SW,236,0.0,0.0,90,0.00,,,0.62,Wunderground v.1.15,2013-04-22 02:55:00,
2013-04-21 20:00:00,44.7,41.9,30.29,SW,236,0.0,0.0,90,0.00,,,0.62,Wunderground v.1.15,2013-04-22 03:00:00,
2013-04-21 20:05:00,44.6,41.8,30.29,SW,236,0.0,0.0,90,0.00,,,0.62,Wunderground v.1.15,2013-04-22 03:05:00,
2013-04-21 20:10:00,44.4,41.7,30.29,SW,236,0.0,0.0,90,0.00,,,0.62,Wunderground v.1.15,2013-04-22 03:10:00,
2013-04-21 20:15:00,44.3,41.6,30.29,SW,236,0.0,0.0,90,0.00,,,0.62,Wunderground v.1.15,2013-04-22 03:15:00,
2013-04-21 20:20:00,44.0,41.3,30.29,SW,236,0.0,0.0,90,0.00,,,0.62,Wunderground v.1.15,2013-04-22 03:20:00,
2013-04-21 20:25:00,43.8,41.1,30.29,SW,236,0.0,0.0,90,0.00,,,0.62,Wunderground v.1.15,2013-04-22 03:25:00,
2013-04-21 20:30:00,43.6,40.9,30.30,SW,236,0.0,0.0,90,0.00,,,0.62,Wunderground v.1.15,2013-04-22 03:30:00,
2013-04-21 20:35:00,43.4,40.7,30.30,SW,236,0.0,0.0,90,0.00,,,0.62,Wunderground v.1.15,2013-04-22 03:35:00,
2013-04-21 20:40:00,43.1,40.4,30.30,SW,236,0.0,0.0,90,0.00,,,0.62,Wunderground v.1.15,2013-04-22 03:40:00,
2013-04-21 20:45:00,43.0,40.3,30.31,SW,236,0.0,0.0,90,0.00,,,0.62,Wunderground v.1.15,2013-04-22 03:45:00,
2013-04-21 20:50:00,42.8,40.1,30.31,SW,236,0.0,0.0,90,0.00,,,0.62,Wunderground v.1.15,2013-04-22 03:50:00,
2013-04-21 20:55:00,42.8,40.1,30.31,SW,236,0.0,0.0,90,0.00,,,0.62,Wunderground v.1.15,2013-04-22 03:55:00,
2013-04-21 21:05:00,42.6,39.9,30.32,SW,236,0.0,0.0,90,0.00,,,0.62,Wunderground v.1.15,2013-04-22 04:05:00,
2013-04-21 21:10:00,42.3,39.6,30.32,SW,236,0.0,0.0,90,0.00,,,0.62,Wunderground v.1.15,2013-04-22 04:10:00,
2013-04-21 21:20:00,41.8,39.1,30.32,SW,236,0.0,0.0,90,0.00,,,0.62,Wunderground v.1.15,2013-04-22 04:20:00,
2013-04-21 21:25:00,41.6,38.9,30.32,SW,236,0.0,0.0,90,0.00,,,0.62,Wunderground v.1.15,2013-04-22 04:25:00,
2013-04-21 21:30:00,41.4,38.7,30.33,SW,236,0.0,0.0,90,0.00,,,0.62,Wunderground v.1.15,2013-04-22 04:30:00,
2013-04-21 21:35:00,41.3,38.9,30.33,SW,236,0.0,0.0,91,0.00,,,0.62,Wunderground v.1.15,2013-04-22 04:35:00,
2013-04-21 21:45:00,41.0,38.6,30.34,SW,236,0.0,0.0,91,0.00,,,0.62,Wunderground v.1.15,2013-04-22 04:45:00,
2013-04-21 21:50:00,40.8,38.4,30.34,SW,236,0.0,0.0,91,0.00,,,0.62,Wunderground v.1.15,2013-04-22 04:50:00,
2013-04-21 22:00:00,40.6,38.2,30.34,SW,236,0.0,0.0,91,0.00,,,0.62,Wunderground v.1.15,2013-04-22 05:00:00,
2013-04-21 22:05:00,40.4,38.0,30.34,SW,236,0.0,0.0,91,0.00,,,0.62,Wunderground v.1.15,2013-04-22 05:05:00,
2013-04-21 22:10:00,40.3,37.9,30.34,SW,236,0.0,0.0,91,0.00,,,0.62,Wunderground v.1.15,2013-04-22 05:10:00,
2013-04-21 22:15:00,40.1,37.7,30.35,SW,236,0.0,0.0,91,0.00,,,0.62,Wunderground v.1.15,2013-04-22 05:15:00,
2013-04-21 22:25:00,39.8,37.4,30.35,SW,236,0.0,0.0,91,0.00,,,0.62,Wunderground v.1.15,2013-04-22 05:25:00,
2013-04-21 22:30:00,39.7,37.3,30.35,SW,236,0.0,0.0,91,0.00,,,0.62,Wunderground v.1.15,2013-04-22 05:30:00,
2013-04-21 22:40:00,39.4,37.0,30.35,SW,236,0.0,0.0,91,0.00,,,0.62,Wunderground v.1.15,2013-04-22 05:40:00,
2013-04-21 22:50:00,39.1,37.0,30.36,SW,236,0.0,0.0,92,0.00,,,0.62,Wunderground v.1.15,2013-04-22 05:50:00,
2013-04-21 22:55:00,39.0,36.9,30.36,SW,236,0.0,0.0,92,0.00,,,0.62,Wunderground v.1.15,2013-04-22 05:55:00,
2013-04-21 23:00:00,38.8,36.7,30.36,SW,236,0.0,0.0,92,0.00,,,0.62,Wunderground v.1.15,2013-04-22 06:00:00,
2013-04-21 23:05:00,38.8,36.7,30.36,SW,236,0.0,0.0,92,0.00,,,0.62,Wunderground v.1.15,2013-04-22 06:05:00,
2013-04-21 23:15:00,38.4,36.3,30.37,SW,236,0.0,0.0,92,0.00,,,0.62,Wunderground v.1.15,2013-04-22 06:15:00,
2013-04-21 23:20:00,38.3,36.2,30.37,SW,236,0.0,0.0,92,0.00,,,0.62,Wunderground v.1.15,2013-04-22 06:20:00,
2013-04-21 23:25:00,38.0,35.6,30.37,SW,236,0.0,0.0,91,0.00,,,0.62,Wunderground v.1.15,2013-04-22 06:25:00,
2013-04-21 23:30:00,37.7,35.6,30.37,SW,236,0.0,0.0,92,0.00,,,0.62,Wunderground v.1.15,2013-04-22 06:30:00,
2013-04-21 23:35:00,37.5,35.4,30.37,SW,236,0.0,0.0,92,0.00,,,0.62,Wunderground v.1.15,2013-04-22 06:35:00,
2013-04-21 23:40:00,37.4,35.3,30.37,SW,236,0.0,0.0,92,0.00,,,0.62,Wunderground v.1.15,2013-04-22 06:40:00,
2013-04-21 23:45:00,37.3,35.2,30.37,SW,236,0.0,0.0,92,0.00,,,0.62,Wunderground v.1.15,2013-04-22 06:45:00,
2013-04-21 23:50:00,37.3,35.2,30.37,SW,236,0.0,0.0,92,0.00,,,0.62,Wunderground v.1.15,2013-04-22 06:50:00,
2013-04-21 23:55:00,37.1,35.0,30.37,SW,236,0.0,0.0,92,0.00,,,0.62,Wunderground v.1.15,2013-04-22 06:55:00,